Regional Weather Roundup
Issued by NWS Newport/Morehead, NC

Current Version | Previous Version | Text Only | Print | Product List | Glossary Off
Versions: 1 2 3 4 5 6 7 8 9 10 11 12 13 14 15 16 17 18 19 20 21 22 23 24 25 26 27 28 29 30 31 32 33 34 35 36 37 38 39 40 41 42 43 44 45 46 47 48 49 50
900 ASUS42 KMHX 191914 RWRMHX WEATHER ROUNDUP FOR EASTERN NORTH CAROLINA NATIONAL WEATHER SERVICE NEWPORT/MOREHEAD CITY NC 300 PM EDT TUE SEP 19 2017 NOTE: "FAIR" INDICATES FEW OR NO CLOUDS BELOW 12,000 FEET WITH NO SIGNIFICANT WEATHER AND/OR OBSTRUCTIONS TO VISIBILITY NCZ015>017-031-032-045>047-102-103-192000- NORTH COAST CITY SKY/WX TMP DP RH WIND PRES REMARKS EDENTON CLOUDY 80 69 68 N12 29.88S ELIZABETH CITY LGT RAIN 73 70 90 NW22G29 29.85F KITTY HAWK CLOUDY 71 68 92 NW13G20 29.81S MANTEO DRIZZLE 71 68 89 N13G26 29.83F $$ NCZ045>047-081-094-103-104-192000- CENTRAL COAST CITY SKY/WX TMP DP RH WIND PRES REMARKS FRISCO LGT RAIN 75 70 84 NW16G28 29.84R $$ NCZ095-097-098-100-101-192000- SOUTHERN COAST CITY SKY/WX TMP DP RH WIND PRES REMARKS BEAUFORT PTSUNNY 82 70 66 NW10 29.88S CEDAR ISLAND NOT AVBL JACKSONVILLE MOSUNNY 85 68 56 N16G24 29.90S PINEY ISLAND N/A N/A N/A N/A NW18 29.87S WILMINGTON SUNNY 86 65 49 N8 29.91F $$ NCZ011>013-027>030-043-044-078>080-089-090>093-098-192000- COASTAL PLAIN CITY SKY/WX TMP DP RH WIND PRES REMARKS AHOSKIE N/A 80 66 64 N8 29.90F CLINTON SUNNY 85 67 54 NW7 29.93F ELIZABETHTOWN NOT AVBL GOLDSBORO SUNNY 84 66 54 NW9 29.91F GREENVILLE MOSUNNY 82 64 54 N10G17 29.92F HAVELOCK MOSUNNY 83 67 58 NW14 29.89F KENANSVILLE MOSUNNY 82 66 57 N9 29.92F KINSTON MOSUNNY 84 64 51 NW10 29.92F NEW BERN PTSUNNY 84 67 56 NW13G20 29.90F RICHLANDS MOSUNNY 84 67 56 NW9 29.91F ROCKY MOUNT SUNNY 83 66 56 NW14 29.93F WASHINGTON MOSUNNY 82 65 55 NW9G21 29.89F WHITEVILLE MOSUNNY 84 63 49 NW3 29.93F $$ AMZ130-135-150-152-154-156-158-170-250-252-270-ANZ085-086-088-633-658-670-192000- MARINE OBSERVATIONS STATION/POSITION TIME TEMP WIND PRES WAVE SWELL AIR SEA DIR/SP/G HT/PER HT/PER (UTC) (F) (DEG/KT/KT) (MB) (FT/S) (FT/S) CHESAPEAKE LIGHT NOT AVBL 64 E VA BEACH 1850 70 71 330/ 31/ 35 1005.7 17/10 13/10 DUCK 1848 72 75 330/ 22/ 27 1009.2 2 E DUCK 1830 75 N/A 11/11 7/11 OREGON INLET 1836 72 74 320/ 16/ 20 1009.4 13E OREGON INLT 1848 74 N/A 13/10 11/10 HATTERAS CG 1848 74 76 330/ 26/ 32 1010.4 DIAMOND BUOY 1850 74 75 310/ 23/ 29 1009.4 9/11 7/11 CAPE LOOKOUT 1900 79 330/ 15/ 17 1011.4 BEAUFORT LAB 1848 80 74 340/ 10/ 15 1011.4 30 SE NEW RVR IN 1808 77 310/ 14/ 17 1012.5 30 SE NEW RVR IN NOT AVBL 27 SE WRIGHTSVLE 1808 77 80 300/ 12/ 17 1013.1 5 SE WRIGHTSVLE 1808 80 78 340/ 10/ 14 1013.1 225 S CAPE HAT 1850 80 80 310/ 16/ 17 1012.4 9/10 7/10 41 SE CHARLESTON 1850 78 82 330/ 4/ 6 1014.1 5/11 5/11 $$

USA.gov is the U.S. government's official web portal to all federal, state and local government web resources and services.